Location: *
(46.0770°N, 1.6444°E)
Time: 23:40:27
(UTC+00:00)

Cosmos 2154 Rocket - Pass Details

Date: 16 September 2019
Orbit: 965 x 997 km, 82.9° (Epoch: 20 October)

Event Time Altitude Azimuth Distance (km) Brightness Sun altitude
Rises 19:34:24 0° 349° (N) 3,669 7.5 -16.1°
Reaches altitude 10° 19:36:55 10° 348° (NNW) 2,716 6.8 -16.5°
Maximum altitude 19:43:06 75° 265° (W) 1,003 4.2 -17.5°
Drops below altitude 10° 19:49:16 10° 181° (S) 2,700 6.1 -18.5°
Sets 19:51:46 0° 180° (S) 3,645 6.8 -18.9°
